Zurück zum Katalog

METEOR 2-12 DEB

LostPO
NORAD 28603·DEBRIS·🇷🇺 Russia

Gestartet Feb 6, 1985 von Plesetsk Cosmodrome

Loading…

Nächste Überflüge (nächste 24 Stunden)

TLE

VeraltetSource: Space-Track

Epoche: Sep 12, 2024, 16:28 UTC

1 28603U 85013C   24256.68646025  .00033190  00000-0  19405-1 0  9998
2 28603  82.5101  26.6591 0018482 317.1266  42.8466 14.08026209571089

Verfolge METEOR 2-12 DEB in Echtzeit mit AllMySat

Download on the App Store